SVYATOBOR 1 (RS60S)

Last updated on Mon Sep 21 2026 00:03:14 GMT+0000 (Coordinated Universal Time)

1 57187U 23091X 26263.58124382 .00006063 00000+0 22445-3 0 9999 2 57187 97.4993 327.9701 0010487 113.5975 246.6367 15.27996281178876
UTC large
Height (km)
Speed (km/s)
/
Latitude / Longitude
Inclination (degrees)
Orbital Period (minutes)
Azimuth
Elevation
Range (km)
Doppler Factor

Next 0 passes for location: London (51.5072 / 0.1276)

No passes found over London.
SVYATOBOR 1 (RS60S)